Location: Utrecht
(52.0907°N, 5.1214°E)
Time: 18:22:49
(UTC+02:00)

DIWATA 2B (PO-101) - Pass Details

Date: 08 July 2022
Orbit: 583 x 599 km, 98.0° (Epoch: 07 August)

Event Time Altitude Azimuth Distance (km) Brightness Sun altitude
Exits shadow 03:01:57 10° 150° (SSE) 1,923 ? -13.5°
Maximum altitude 03:06:04 61° 71° (ENE) 687 ? -13.3°
Drops below altitude 10° 03:10:14 10° 352° (N) 1,950 ? -13.1°
Sets 03:12:26 0° 349° (NNW) 2,856 ? -13.0°
